STARLINK-36769, 67871

Orbit data source: Space-Track

STARLINK-36769, 67871 is a payload satellite owned by SpaceX/Seattle (US) in LEO that was launched on Fri, 20 Feb 2026 UTC via an FALCON 9 launch vehicle from the Air Force Eastern Test Range (AFETR). Payload-class satellites include a variety of spacecraft equipped with specific instruments for various scientific and technological missions. These include communications satellites like Starlink; space stations such as the ISS; scientific satellites like the Hubble; Earth observation satellites from companies like Planet Labs, Umbra, and HawkEye 360; GPS; miniature CubeSats for education and research; and military/defense satellites.

Loading next visibility...
Identifier
67871, 2026-034X
Orbit
LEO
Country
Flag of USUS
Related business
Manufacturer
SpaceX/Seattle
Mission
Operational Commercial Communications
Bus & Motor
STARLINK V2MO, Unknown motor
Mass
575 kg wet, ~530 kg dry
Launch date (UTC)
2026-02-20 (4 months ago)
Launch vehicle
FALCON 9
Launch site
Air Force Eastern Test Range (AFETR)
Object type
Payload
Rocket body
Debris
Shape & HBR
Box + 2 Pan, 17.7 m
Radar Cross Section
36.964 m², Large (>1 m²)

Expand to show TLE details & history
Last TLE update: 17 hours ago

TLE from 17 hours ago
0 STARLINK-36769
1 67871U 26034X   26171.14256521  .00027533  00000-0  93782-3 0  9999
2 67871  53.1567  88.2141 0001162  93.3235 266.7898 15.30216082 19720
Epoch: 2026-06-20T03:25Z
TLE epoch observation values (Epoch: 2026-06-20T03:25:17.634Z)
Latitude
-0.00006°
Longitude
128.52915°
Altitude
476.111 km
Speed
7.629 km/s
True Right ascension
05h 52m 51s
True Declination
0° 00' 00"
Sunlit
Object was in daylight at epoch
Visualization orbit readout
Latitude
Unknown
Longitude
Unknown
Altitude
Unknown
Speed
Unknown
Apparent Right ascension
Unknown
Apparent Declination
Unknown
Sunlit
N/A
Visualization observer readout
Local Sidereal Time
07:15:13
Azimuth
Unknown
Elevation
Unknown
Doppler factor
Unknown
Orbital elements
Apogee altitude
476.22 km
Perigee altitude
474.628 km
Semi-major axis
6,853.561 km
Eccentricity
0.00012
Inclination
53.1567°
RAAN
88.2141°
Arg. of periapsis
93.3235°
True anomaly
266.77651°
Mean anomaly
266.7898°
Eccentric anomaly
266.78315°
Mean motion
3.82533 °/min
Orbital period
94.11 mins
BSTAR
0.00093782
Loading maneuver chart data...
Computing Atmospheric mass density...
Loading historical data...
Loading historical data...
Loading historical data...
Loading historical data...
Loading historical data...
Loading historical data...
Loading historical data...

Documentation

Showing up to 5 results
|